Location: Saint-Palais-sur-Mer
(45.6429°N, 1.0859°W)
Time: 03:39:45
(UTC+01:00)

ISS - Visible Passes

Search period start: 22 March 2023 00:00
Search period end: 01 April 2023 01:00
Orbit: 414 x 423 km, 51.6° (Epoch: 21 March)

Date Brightness Start Highest point End Pass type
(mag) Time Alt. Az. Time Alt. Az. Time Alt. Az.
22 Mar -2.5 20:15:17 10° W 20:18:25 36° NNW 20:21:34 10° NE visible
22 Mar -1.4 21:52:47 10° WNW 21:54:34 23° NNW 21:54:34 23° NNW visible
23 Mar -2.2 21:04:50 10° WNW 21:07:47 28° N 21:08:43 24° NNE visible
24 Mar -2.1 20:16:48 10° WNW 20:19:47 28° N 20:22:45 10° ENE visible
24 Mar -1.5 21:53:58 10° NW 21:55:44 25° NW 21:55:44 25° NW visible
25 Mar -2.5 21:06:03 10° NW 21:09:07 32° N 21:09:46 29° NE visible
26 Mar -2.2 21:18:05 10° WNW 21:21:04 29° N 21:23:46 12° ENE visible
26 Mar -1.7 22:54:54 10° WNW 22:56:42 29° NW 22:56:42 29° NW visible
27 Mar -3.2 22:06:59 10° NW 22:10:15 47° NNE 22:10:41 44° NE visible
28 Mar -2.8 21:19:01 10° NW 21:22:11 37° NNE 21:24:40 14° E visible
28 Mar -1.8 22:55:47 10° WNW 22:57:36 28° W 22:57:36 28° W visible
29 Mar -3.9 22:07:45 10° WNW 22:11:06 87° SSW 22:11:35 63° SE visible
30 Mar -3.6 21:19:43 10° WNW 21:23:04 64° NNE 21:25:35 16° ESE visible
30 Mar -1.4 22:56:54 10° W 22:58:31 19° WSW 22:58:31 19° WSW visible
31 Mar -2.6 22:08:34 10° WNW 22:11:40 35° SW 22:12:33 30° S visible
